FENGYUN 1C DEB

Satellite information

Favourite Embed

Satellite Type and Status

DEBRISIN ORBIT

Key statistics

Satellite FENGYUN 1C DEB at a glance.

Uptime

9496

Days in orbit

Revolutions

≈ 14.5

Per day

Orbit

SSO

Sun Synchronous Orbit

Inclination

98.8

Latest

Satellite identification and parameters

Extended collection of information and parameters for FENGYUN 1C DEB.

Object identification

Identified? True

Debris? True

Object name: FENGYUN 1C DEB

International designator: 1999-025EK

Object number (NORAD): 29841

Object ID (CCSDS): 29841

Country: PEOPLES REPUBLIC OF CHINA (PRC)

Current information (Y/N): Y

RCS size: SMALL

Orbital parameters

Period: 99.609 minutes

Inclination: 98.7954 deg

SMA: 7117.999 km

Apoapsis: 883.465 km

Periapsis: 596.262 km

RAAN: 66.4065 deg

Eccentricy: 0.0201744

Argument of periapsis: 270.339 deg

Mean anomaly: 165.6267 deg

Mean motion: 14.45659164 rev/day

Mean motion (dot): 0.00001517 rev/day2

B* drag term: 0.0003468 1/REarth

Two-line elements (TLE)

Creation date: May 8, 2025, 3:01 a.m.

Reference frame: TEME

Reference center: EARTH

Epoch: May 7, 2025, 5:06 p.m. UTC

TLE line 0: 0 FENGYUN 1C DEB

TLE line 1: 1 29841U 99025EK 25127.71266532 .00001517 00000-0 34680-3 0 9996

TLE line 2: 2 29841 98.7954 66.4065 0201744 270.3390 165.6267 14.45659164961584

Live tracking on map

Real-time ground track for satellite FENGYUN 1C DEB.

In-orbit conjunctions

A list of the most updated potential collisions computed for object FENGYUN 1C DEB.

Target Orbit TCA Probability of collision Miss distance Type
SL-14 R/B LEO 2025-03-09 04:24:06 0.0001480575 343.0 (m) ROCKET BODY
DIAMANT R/B LEO 2024-11-01 15:08:06 0.0001687414 320.0 (m) ROCKET BODY
OBJECT A SSO 2024-09-17 19:14:26 0.0002773165 385.0 (m) UNKNOWN

Associated space launch

Chinese polar orbiting meteorological satellite

FENGYUN 1C DEB was lifted into orbit during the mission ‘Long March 4B | Feng Yun 1C’, on board a Long March 4B space rocket.

The launch took place on May 10, 1999, 1:33 a.m. from Launch Complex 7.

For more information about the launch, click the button.

Launch to space Long March 4B | Feng Yun 1C
Long March 4B | Feng Yun 1C

Agency: N/A

Status: Launch Successful

Launch date: May 10, 1999, 1:33 a.m. UTC

Rocket: Long March 4B

Launch pad: Launch Complex 7

Location: Taiyuan Satellite Launch Center, People's Republic of China

...

Latest news about this satellite

There are no fresh news available about this satellite. Check back as we update our databases every day.


Newsletter sign-up

Weekly statistics, charts and insights to help you stay on top of the space industry.